Location: Cul de Sac
(18.0387°N, 63.0654°W)
Time: 18:20:14
(UTC+00:00)

IUS-26 SRM-1 - Pass Details

Date: 29 October 2020
Orbit: 331 x 32213 km, 25.7° (Epoch: 24 November)

Event Time Altitude Azimuth Distance (km) Brightness Sun altitude
Rises 22:02:58 0° 273° (W) 7,088 10.3 -5.9°
Reaches altitude 10° 22:10:26 10° 282° (WNW) 3,669 8.2 -7.6°
Maximum altitude 22:16:26 29° 343° (NNW) 1,100 4.4 -9.0°
Enters shadow 22:18:49 10° 48° (NE) 1,420 4.4 -9.6°
